Wichita, KS

8:03 PM CDT on April 21, 2018 (GMT -0500)
Wichita Eisenhower National Airport

Weather History for KICT - September, 2014

Change the Weather History Date:

Wednesday, September 24, 2014

  Actual Average Record
Temperature  
Mean Temperature 70 °F 67 °F  
Max Temperature 81 °F 79 °F 96 °F (1898)
Min Temperature 58 °F 56 °F 34 °F (1989)
Degree Days  
Heating Degree Days 0 3  
Month to date heating degree days 20 21  
Since 1 July heating degree days 21 22  
Cooling Degree Days 5 5  
Month to date cooling degree days 225 197  
Year to date cooling degree days 1721 1624  
Growing Degree Days 19 (Base 50)    
Moisture  
Dew Point 57 °F    
Average Humidity 68    
Maximum Humidity 90    
Minimum Humidity 45    
Precipitation  
Precipitation 0.16 in 0.10 in 1.59 in (1973)
Month to date precipitation 0.47 2.54  
Year to date precipitation 22.45 26.63  
Snow  
Snow 0.00 in 0.00 in 0.00 in (2007)
Month to date snowfall 0.0 0.0  
Since 1 July snowfall 0.0 0.0  
Since 1 September snowfall 0.0 0.0  
Snow Depth 0.00 in    
Sea Level Pressure  
Sea Level Pressure 30.12 in    
Wind  
Wind Speed 12 mph (SSE)    
Max Wind Speed 23 mph    
Max Gust Speed 27 mph    
Visibility 10 miles    
Events Rain , Thunderstorm    
T = Trace of Precipitation, MM = Missing Value Source: NWS Daily Summary

Daily Weather History Graph

Daily Weather History Graph

Search for Another Location

Airport or City:

Astronomy

Sep. 24, 2014 Rise Set
Actual Time 7:19 AM CDT 7:23 PM CDT
Civil Twilight 6:53 AM CDT 7:49 PM CDT
Nautical Twilight 6:22 AM CDT 8:20 PM CDT
Astronomical Twilight 5:51 AM CDT 8:50 PM CDT
Moon 7:40 AM CDT (9/24) 7:36 PM CDT (9/24)
Length of Visible Light 12h 56m
Length of Day
12h 04m
New Moon, 0% of the Moon is Illuminated
Sep 24
New Moon
Oct 1
First Quarter
Oct 8
Full
Oct 15
Last Quarter
Oct 23
New

Hourly Weather History & Observations

Time (CDT) Temp. Heat Index Dew Point Humidity Pressure Visibility Wind Dir Wind Speed Gust Speed Precip Events Conditions
12:53 AM 62.1 °F - 55.9 °F 80% 30.08 in 10.0 mi ESE 17.3 mph - 0.07 in Rain , Thunderstorm Light Thunderstorms and Rain
1:46 AM 60.1 °F - 57.0 °F 90% 30.18 in 2.5 mi SSE 10.4 mph - 0.07 in Rain , Thunderstorm Heavy Thunderstorms and Rain
1:53 AM 60.1 °F - 57.0 °F 90% 30.15 in 4.0 mi SSE 10.4 mph - 0.11 in Rain , Thunderstorm Heavy Thunderstorms and Rain
2:39 AM 60.1 °F - 57.0 °F 90% 30.14 in 7.0 mi South 12.7 mph - 0.03 in Rain Rain
2:53 AM 61.0 °F - 57.0 °F 87% 30.12 in 10.0 mi South 15.0 mph - 0.04 in Rain Light Rain
3:20 AM 60.1 °F - 57.0 °F 90% 30.12 in 10.0 mi SSE 19.6 mph - 0.01 in Rain Light Rain
3:53 AM 60.1 °F - 57.9 °F 93% 30.07 in 10.0 mi SSE 19.6 mph 27.6 mph 0.01 in Rain Light Rain
4:53 AM 60.1 °F - 57.0 °F 90% 30.08 in 10.0 mi South 16.1 mph - 0.00 in   Overcast
5:53 AM 59.0 °F - 55.9 °F 90% 30.09 in 10.0 mi SSE 8.1 mph - N/A   Mostly Cloudy
6:53 AM 57.9 °F - 54.0 °F 87% 30.11 in 10.0 mi SSE 11.5 mph - N/A   Mostly Cloudy
7:53 AM 60.1 °F - 55.0 °F 83% 30.13 in 10.0 mi Variable 5.8 mph - 0.00 in Rain Light Rain
8:50 AM 62.6 °F - 55.4 °F 77% 30.16 in 10.0 mi Calm Calm - 0.00 in Rain , Thunderstorm Light Thunderstorms and Rain
8:53 AM 62.1 °F - 55.0 °F 78% 30.14 in 10.0 mi SSE 5.8 mph - 0.00 in Rain , Thunderstorm Light Thunderstorms and Rain
9:53 AM 62.1 °F - 55.9 °F 80% 30.15 in 10.0 mi South 10.4 mph - 0.00 in Thunderstorm Thunderstorm
10:12 AM 61.0 °F - 55.9 °F 83% 30.17 in 10.0 mi South 13.8 mph - N/A   Overcast
10:53 AM 62.1 °F - 55.9 °F 80% 30.16 in 10.0 mi SSE 10.4 mph - 0.00 in   Mostly Cloudy
11:53 AM 64.9 °F - 57.0 °F 75% 30.15 in 10.0 mi South 12.7 mph - N/A   Mostly Cloudy
12:48 PM 66.2 °F - 57.2 °F 73% 30.16 in 10.0 mi South 11.5 mph - 0.00 in Rain , Thunderstorm Light Thunderstorms and Rain
12:53 PM 66.9 °F - 57.9 °F 73% 30.14 in 10.0 mi South 12.7 mph - 0.00 in Rain , Thunderstorm Light Thunderstorms and Rain
1:50 PM 75.2 °F - 57.2 °F 53% 30.14 in 10.0 mi South 20.7 mph - 0.00 in   Mostly Cloudy
1:53 PM 75.0 °F - 57.0 °F 53% 30.12 in 10.0 mi SSW 19.6 mph - 0.00 in   Mostly Cloudy
2:53 PM 77.0 °F - 57.9 °F 52% 30.10 in 10.0 mi SSE 13.8 mph - 0.00 in   Mostly Cloudy
3:53 PM 78.1 °F - 59.0 °F 52% 30.08 in 10.0 mi SSE 15.0 mph - N/A   Mostly Cloudy
4:53 PM 80.1 °F 80.7 °F 59.0 °F 48% 30.07 in 10.0 mi SSE 12.7 mph - N/A   Mostly Cloudy
5:53 PM 80.1 °F 80.4 °F 57.0 °F 45% 30.07 in 10.0 mi South 13.8 mph - N/A   Scattered Clouds
6:53 PM 77.0 °F - 57.9 °F 52% 30.07 in 10.0 mi SSE 11.5 mph - N/A   Scattered Clouds
7:53 PM 73.9 °F - 57.0 °F 55% 30.09 in 10.0 mi SE 11.5 mph - N/A   Scattered Clouds
8:53 PM 72.0 °F - 55.9 °F 57% 30.11 in 10.0 mi SSE 10.4 mph - N/A   Scattered Clouds
9:53 PM 71.1 °F - 55.0 °F 57% 30.12 in 10.0 mi SSE 12.7 mph - N/A   Scattered Clouds
10:53 PM 68.0 °F - 55.0 °F 63% 30.14 in 10.0 mi SSE 10.4 mph - N/A   Partly Cloudy
11:53 PM 66.0 °F - 54.0 °F 65% 30.14 in 10.0 mi SSE 9.2 mph - N/A   Scattered Clouds